Location: Chevoux
(46.3801°N, 4.9476°E)
Time: 23:02:21
(UTC+00:00)

CSL-04 DEB - Visible Passes

Search period start: 05 May 2021 00:00
Search period end: 15 May 2021 00:00
Orbit: 546 x 626 km, 98.8° (Epoch: 05 May)

Date Brightness Start Highest point End Pass type
(mag) Time Alt. Az. Time Alt. Az. Time Alt. Az.
09 May 7.2 19:31:26 10° N 19:34:55 25° WNW 19:38:19 10° WSW visible
10 May 7.5 19:38:22 10° NNW 19:41:39 22° WNW 19:44:51 10° WSW visible
11 May 7.6 19:45:21 10° NNW 19:48:22 19° WNW 19:51:20 10° WSW visible
12 May 7.7 19:52:21 10° NNW 19:55:06 17° WNW 19:57:47 10° W visible
13 May 7.8 19:59:25 10° NNW 20:01:48 15° WNW 20:04:09 10° W visible
14 May 7.9 20:06:34 10° NNW 20:08:31 13° WNW 20:10:27 10° W visible
